Vero Beach, FL

7:54 PM EST on December 04, 2016 (GMT -0500)
Vero Beach Municipal

Weather History for KVRB - August, 2012

Change the Weather History Date:

Tuesday, August 7, 2012

  Actual Average Record
Temperature  
Mean Temperature 81 °F 82 °F  
Max Temperature 91 °F 90 °F 98 °F (1956)
Min Temperature 70 °F 74 °F 69 °F (1975)
Degree Days  
Heating Degree Days 0 0  
Month to date heating degree days 0 0  
Since 1 June heating degree days 0 0  
Since 1 July heating degree days 0 0  
Cooling Degree Days 16 17  
Month to date cooling degree days 121 119  
Year to date cooling degree days 2125 1899  
Since 1 June cooling degree days 1086 1093  
Growing Degree Days 30 (Base 50)    
Moisture  
Dew Point 74 °F    
Average Humidity 82    
Maximum Humidity 100    
Minimum Humidity 64    
Precipitation  
Precipitation 0.00 in 0.23 in 2.76 in (2016)
Month to date precipitation 0.35 1.44  
Year to date precipitation 21.08 29.11  
Sea Level Pressure  
Sea Level Pressure 30.03 in    
Wind  
Wind Speed 7 mph (SE)    
Max Wind Speed 21 mph    
Max Gust Speed 25 mph    
Visibility 10 miles    
Events Thunderstorm    
T = Trace of Precipitation, MM = Missing Value Source: NWS Daily Summary

Daily Weather History Graph

Daily Weather History Graph

Search for Another Location

Airport or City:

Trip Planner

Search our weather history database for the weather conditions in past years. The results will help you decide how hot, cold, wet, or windy it might be!

Date:

Astronomy

Aug. 07, 2012 Rise Set
Actual Time 6:48 AM EDT 8:06 PM EDT
Civil Twilight 6:23 AM EDT 8:30 PM EDT
Nautical Twilight 5:53 AM EDT 9:00 PM EDT
Astronomical Twilight 5:23 AM EDT 9:31 PM EDT
Moon 11:25 PM EDT (8/7) 11:56 AM EDT (8/7)
Length of Visible Light 14h 07m
Length of Day
13h 17m
Waning Gibbous, 70% of the Moon is Illuminated
Aug 7
Waning Gibbous
Aug 9
Last Quarter
Aug 17
New
Aug 24
First Quarter
Aug 31
Full

Hourly Weather History & Observations

Time (EDT) Temp. Heat Index Dew Point Humidity Pressure Visibility Wind Dir Wind Speed Gust Speed Precip Events Conditions
12:53 AM 73.0 °F - 72.0 °F 96% 30.06 in 10.0 mi Calm Calm - N/A   Clear
1:53 AM 73.0 °F - 72.0 °F 96% 30.04 in 10.0 mi Calm Calm - N/A   Clear
2:53 AM 75.0 °F - 73.9 °F 96% 30.02 in 10.0 mi SE 9.2 mph - N/A   Clear
3:53 AM 73.0 °F - 72.0 °F 96% 30.00 in 10.0 mi South 3.5 mph - N/A   Clear
4:53 AM 72.0 °F - 72.0 °F 100% 29.99 in 10.0 mi Calm Calm - N/A   Clear
5:53 AM 71.1 °F - 71.1 °F 100% 30.00 in 10.0 mi Calm Calm - N/A   Clear
6:53 AM 70.0 °F - 70.0 °F 100% 30.02 in 10.0 mi Calm Calm - N/A   Clear
7:53 AM 73.9 °F - 73.9 °F 100% 30.02 in 10.0 mi Calm Calm - N/A   Clear
8:53 AM 79.0 °F - 75.0 °F 88% 30.04 in 10.0 mi ENE 4.6 mph - N/A   Clear
9:53 AM 82.9 °F 90.2 °F 75.0 °F 77% 30.04 in 10.0 mi East 8.1 mph - N/A   Scattered Clouds
10:53 AM 84.9 °F 94.1 °F 75.9 °F 74% 30.06 in 10.0 mi Variable 6.9 mph - N/A   Scattered Clouds
11:53 AM 87.1 °F 98.8 °F 77.0 °F 72% 30.05 in 10.0 mi East 8.1 mph - N/A   Scattered Clouds
12:53 PM 88.0 °F 100.2 °F 77.0 °F 70% 30.05 in 10.0 mi SE 13.8 mph 21.9 mph N/A   Mostly Cloudy
1:53 PM 89.1 °F 99.1 °F 75.0 °F 63% 30.04 in 10.0 mi ESE 16.1 mph - N/A   Mostly Cloudy
2:00 PM 89.6 °F 99.8 °F 75.2 °F 62% 30.04 in 10.0 mi ESE 15.0 mph - N/A   Scattered Clouds
2:21 PM 89.6 °F 99.8 °F 75.2 °F 62% 30.03 in 10.0 mi East 16.1 mph - N/A   Mostly Cloudy
2:53 PM 89.1 °F 100.2 °F 75.9 °F 65% 30.01 in 10.0 mi ESE 12.7 mph - N/A   Mostly Cloudy
3:53 PM 87.1 °F 96.3 °F 75.0 °F 67% 30.01 in 10.0 mi SE 15.0 mph 25.3 mph N/A Thunderstorm Thunderstorm
4:53 PM 84.9 °F 93.3 °F 75.0 °F 72% 30.01 in 10.0 mi SE 9.2 mph 19.6 mph N/A   Scattered Clouds
5:53 PM 84.9 °F 92.1 °F 73.9 °F 69% 30.00 in 10.0 mi SE 13.8 mph - N/A   Scattered Clouds
6:53 PM 84.0 °F 92.6 °F 75.9 °F 76% 30.01 in 10.0 mi SE 9.2 mph - N/A   Clear
7:53 PM 82.9 °F 90.2 °F 75.0 °F 77% 30.01 in 10.0 mi SE 9.2 mph - N/A   Clear
8:53 PM 82.0 °F 89.4 °F 75.9 °F 82% 30.03 in 10.0 mi SE 9.2 mph - N/A   Clear
9:53 PM 82.0 °F 89.4 °F 75.9 °F 82% 30.04 in 10.0 mi SE 8.1 mph - N/A   Clear
10:53 PM 81.0 °F 87.3 °F 75.9 °F 85% 30.05 in 10.0 mi SE 8.1 mph - N/A   Clear
11:53 PM 80.1 °F 85.4 °F 75.9 °F 87% 30.04 in 10.0 mi SE 6.9 mph - N/A   Clear